Time,TemperatureF,DewpointF,PressureIn,WindDirection,WindDirectionDegrees,WindSpeedMPH,WindSpeedGustMPH,Humidity,HourlyPrecipIn,Conditions,Clouds,dailyrainin,SoftwareType,DateUTC
2013-01-03 00:00:00,19.0,8.2,30.14,North,5,2.0,6.0,62,0.00,,,0.00,meteohub,2013-01-03 05:00:00,
2013-01-03 00:02:00,18.9,7.7,30.14,East,81,0.0,6.0,61,0.00,,,0.00,meteohub,2013-01-03 05:02:00,
2013-01-03 00:03:00,18.9,7.7,30.14,NE,37,1.0,6.0,61,0.00,,,0.00,meteohub,2013-01-03 05:03:00,
2013-01-03 00:05:00,18.9,7.7,30.14,NW,321,0.0,7.0,61,0.00,,,0.00,meteohub,2013-01-03 05:05:00,
2013-01-03 00:10:00,18.9,7.7,30.14,NNE,23,1.0,9.0,61,0.00,,,0.00,meteohub,2013-01-03 05:10:00,
2013-01-03 00:15:00,18.7,7.5,30.14,East,92,2.0,9.0,61,0.00,,,0.00,meteohub,2013-01-03 05:15:00,
2013-01-03 00:20:00,18.5,7.3,30.14,East,86,2.0,13.0,61,0.00,,,0.00,meteohub,2013-01-03 05:20:00,
2013-01-03 00:25:00,18.3,7.2,30.14,East,90,2.0,13.0,61,0.00,,,0.00,meteohub,2013-01-03 05:25:00,
2013-01-03 00:30:00,18.1,7.0,30.14,ENE,69,3.0,13.0,61,0.00,,,0.00,meteohub,2013-01-03 05:30:00,
2013-01-03 00:35:00,18.1,7.3,30.14,ENE,78,0.0,8.0,62,0.00,,,0.00,meteohub,2013-01-03 05:35:00,
2013-01-03 00:40:00,18.0,7.5,30.14,East,90,2.0,5.0,63,0.00,,,0.00,meteohub,2013-01-03 05:40:00,
2013-01-03 00:45:00,17.8,7.0,30.14,ENE,76,2.0,7.0,62,0.00,,,0.00,meteohub,2013-01-03 05:45:00,
2013-01-03 00:50:00,17.8,7.3,30.14,East,86,2.0,7.0,63,0.00,,,0.00,meteohub,2013-01-03 05:50:00,
2013-01-03 00:55:00,17.4,7.0,30.15,ENE,72,2.0,7.0,63,0.00,,,0.00,meteohub,2013-01-03 05:55:00,
2013-01-03 01:00:00,17.4,7.0,30.14,NW,308,2.0,6.0,63,0.00,,,0.00,meteohub,2013-01-03 06:00:00,
2013-01-03 01:05:00,17.2,6.4,30.14,NW,306,2.0,6.0,62,0.00,,,0.00,meteohub,2013-01-03 06:05:00,
2013-01-03 01:11:00,17.2,6.1,30.14,East,93,2.0,6.0,61,0.00,,,0.00,meteohub,2013-01-03 06:11:00,
2013-01-03 01:16:00,17.1,5.2,30.14,East,84,6.0,8.0,59,0.00,,,0.00,meteohub,2013-01-03 06:16:00,
2013-01-03 01:21:00,17.1,4.8,30.14,East,90,3.0,10.0,58,0.00,,,0.00,meteohub,2013-01-03 06:21:00,
2013-01-03 01:26:00,17.1,5.2,30.16,East,87,2.0,10.0,59,0.00,,,0.00,meteohub,2013-01-03 06:26:00,
2013-01-03 01:31:00,16.9,5.4,30.16,East,93,1.0,10.0,60,0.00,,,0.00,meteohub,2013-01-03 06:31:00,
2013-01-03 01:36:00,16.9,5.4,30.15,ENE,61,2.0,9.0,60,0.00,,,0.00,meteohub,2013-01-03 06:36:00,
2013-01-03 01:41:00,16.7,5.9,30.16,East,88,0.0,8.0,62,0.00,,,0.00,meteohub,2013-01-03 06:41:00,
2013-01-03 01:46:00,16.5,6.1,30.16,SSE,150,0.0,3.0,63,0.00,,,0.00,meteohub,2013-01-03 06:46:00,
2013-01-03 01:51:00,16.3,5.9,30.16,ENE,78,2.0,3.0,63,0.00,,,0.00,meteohub,2013-01-03 06:51:00,
2013-01-03 01:56:00,16.3,5.9,30.17,East,80,3.0,6.0,63,0.00,,,0.00,meteohub,2013-01-03 06:56:00,
2013-01-03 02:01:00,16.2,6.1,30.17,NNW,344,2.0,6.0,64,0.00,,,0.00,meteohub,2013-01-03 07:01:00,
2013-01-03 02:06:00,16.2,6.1,30.17,ESE,105,3.0,6.0,64,0.00,,,0.00,meteohub,2013-01-03 07:06:00,
2013-01-03 02:11:00,16.0,5.9,30.17,ENE,77,3.0,8.0,64,0.00,,,0.00,meteohub,2013-01-03 07:11:00,
2013-01-03 02:17:00,16.0,5.5,30.17,ESE,103,3.0,8.0,63,0.00,,,0.00,meteohub,2013-01-03 07:17:00,
2013-01-03 02:22:00,15.6,5.4,30.16,NE,45,5.0,8.0,63,0.00,,,0.00,meteohub,2013-01-03 07:22:00,
2013-01-03 02:27:00,15.4,5.2,30.16,East,99,3.0,7.0,63,0.00,,,0.00,meteohub,2013-01-03 07:27:00,
2013-01-03 02:32:00,15.4,5.2,30.17,ESE,106,2.0,7.0,63,0.00,,,0.00,meteohub,2013-01-03 07:32:00,
2013-01-03 02:37:00,15.3,5.0,30.16,NE,48,3.0,6.0,63,0.00,,,0.00,meteohub,2013-01-03 07:37:00,
2013-01-03 02:42:00,15.1,4.8,30.16,ENE,61,2.0,6.0,63,0.00,,,0.00,meteohub,2013-01-03 07:42:00,
2013-01-03 02:47:00,14.9,4.3,30.16,East,84,1.0,7.0,62,0.00,,,0.00,meteohub,2013-01-03 07:47:00,
2013-01-03 02:52:00,14.7,3.7,30.15,East,81,3.0,9.0,61,0.00,,,0.00,meteohub,2013-01-03 07:52:00,
2013-01-03 02:57:00,14.7,4.1,30.16,ESE,103,1.0,9.0,62,0.00,,,0.00,meteohub,2013-01-03 07:57:00,
2013-01-03 03:02:00,14.5,3.9,30.15,ESE,103,4.0,9.0,62,0.00,,,0.00,meteohub,2013-01-03 08:02:00,
2013-01-03 03:07:00,14.5,3.9,30.15,NE,43,0.0,7.0,62,0.00,,,0.00,meteohub,2013-01-03 08:07:00,
2013-01-03 03:12:00,14.4,3.4,30.15,East,86,6.0,7.0,61,0.00,,,0.00,meteohub,2013-01-03 08:12:00,
2013-01-03 03:17:00,14.4,3.7,30.16,East,87,3.0,7.0,62,0.00,,,0.00,meteohub,2013-01-03 08:17:00,
2013-01-03 03:22:00,14.2,3.2,30.15,NE,35,4.0,7.0,61,0.00,,,0.00,meteohub,2013-01-03 08:22:00,
2013-01-03 03:27:00,14.2,3.2,30.16,East,86,1.0,7.0,61,0.00,,,0.00,meteohub,2013-01-03 08:27:00,
2013-01-03 03:32:00,14.0,3.4,30.15,NNW,328,2.0,7.0,62,0.00,,,0.00,meteohub,2013-01-03 08:32:00,
2013-01-03 03:37:00,13.8,3.2,30.15,East,81,3.0,7.0,62,0.00,,,0.00,meteohub,2013-01-03 08:37:00,
2013-01-03 03:42:00,13.8,3.2,30.15,ESE,103,2.0,8.0,62,0.00,,,0.00,meteohub,2013-01-03 08:42:00,
2013-01-03 03:47:00,13.6,3.0,30.15,East,92,2.0,8.0,62,0.00,,,0.00,meteohub,2013-01-03 08:47:00,
2013-01-03 03:52:00,13.5,3.2,30.15,East,85,2.0,8.0,63,0.00,,,0.00,meteohub,2013-01-03 08:52:00,
2013-01-03 03:57:00,13.5,2.8,30.15,ESE,103,1.0,6.0,62,0.00,,,0.00,meteohub,2013-01-03 08:57:00,
2013-01-03 04:02:00,13.3,3.0,30.15,East,90,2.0,9.0,63,0.00,,,0.00,meteohub,2013-01-03 09:02:00,
2013-01-03 04:07:00,13.1,2.8,30.16,NE,53,2.0,9.0,63,0.00,,,0.00,meteohub,2013-01-03 09:07:00,
2013-01-03 04:12:00,12.9,3.0,30.16,ENE,63,3.0,6.0,64,0.00,,,0.00,meteohub,2013-01-03 09:12:00,
2013-01-03 04:17:00,12.9,3.0,30.15,North,355,3.0,4.0,64,0.00,,,0.00,meteohub,2013-01-03 09:17:00,
2013-01-03 04:22:00,12.7,2.5,30.16,East,87,1.0,6.0,63,0.00,,,0.00,meteohub,2013-01-03 09:22:00,
2013-01-03 04:27:00,12.6,2.3,30.16,East,84,3.0,6.0,63,0.00,,,0.00,meteohub,2013-01-03 09:27:00,
2013-01-03 04:32:00,12.6,2.3,30.16,NE,36,3.0,6.0,63,0.00,,,0.00,meteohub,2013-01-03 09:32:00,
2013-01-03 04:37:00,12.4,2.1,30.15,ENE,77,1.0,6.0,63,0.00,,,0.00,meteohub,2013-01-03 09:37:00,
2013-01-03 04:42:00,12.4,2.1,30.15,East,93,2.0,6.0,63,0.00,,,0.00,meteohub,2013-01-03 09:42:00,
2013-01-03 04:47:00,12.2,1.9,30.15,East,79,2.0,6.0,63,0.00,,,0.00,meteohub,2013-01-03 09:47:00,
2013-01-03 04:52:00,12.0,1.8,30.15,ENE,58,2.0,7.0,63,0.00,,,0.00,meteohub,2013-01-03 09:52:00,
2013-01-03 04:57:00,11.8,1.8,30.15,East,96,1.0,7.0,63,0.00,,,0.00,meteohub,2013-01-03 09:57:00,
2013-01-03 05:02:00,11.8,1.8,30.15,NNW,338,0.0,7.0,63,0.00,,,0.00,meteohub,2013-01-03 10:02:00,
2013-01-03 05:07:00,11.8,1.9,30.15,ENE,69,0.0,6.0,64,0.00,,,0.00,meteohub,2013-01-03 10:07:00,
2013-01-03 05:12:00,11.7,1.8,30.15,ENE,59,1.0,5.0,64,0.00,,,0.00,meteohub,2013-01-03 10:12:00,
2013-01-03 05:17:00,11.5,1.8,30.16,NNE,24,1.0,3.0,64,0.00,,,0.00,meteohub,2013-01-03 10:17:00,
2013-01-03 05:22:00,11.5,1.8,30.16,NE,41,1.0,3.0,64,0.00,,,0.00,meteohub,2013-01-03 10:22:00,
2013-01-03 05:27:00,11.3,1.8,30.16,NE,41,1.0,3.0,65,0.00,,,0.00,meteohub,2013-01-03 10:27:00,
2013-01-03 05:32:00,11.3,1.8,30.17,NNW,334,1.0,3.0,65,0.00,,,0.00,meteohub,2013-01-03 10:32:00,
2013-01-03 05:37:00,11.1,1.6,30.16,SSE,153,0.0,3.0,65,0.00,,,0.00,meteohub,2013-01-03 10:37:00,
2013-01-03 05:42:00,10.9,1.4,30.17,ENE,66,0.0,3.0,65,0.00,,,0.00,meteohub,2013-01-03 10:42:00,
2013-01-03 05:47:00,10.9,1.4,30.17,NE,37,1.0,4.0,65,0.00,,,0.00,meteohub,2013-01-03 10:47:00,
2013-01-03 05:52:00,10.8,1.4,30.17,ENE,67,0.0,4.0,65,0.00,,,0.00,meteohub,2013-01-03 10:52:00,
2013-01-03 05:57:00,10.8,1.4,30.17,NE,46,1.0,4.0,65,0.00,,,0.00,meteohub,2013-01-03 10:57:00,
2013-01-03 06:02:00,10.8,1.6,30.17,ENE,65,1.0,5.0,66,0.00,,,0.00,meteohub,2013-01-03 11:02:00,
2013-01-03 06:07:00,10.6,1.8,30.17,ENE,65,0.0,5.0,67,0.00,,,0.00,meteohub,2013-01-03 11:07:00,
2013-01-03 06:12:00,10.4,1.6,30.17,ENE,65,0.0,5.0,67,0.00,,,0.00,meteohub,2013-01-03 11:12:00,
2013-01-03 06:17:00,10.2,1.0,30.17,ENE,71,0.0,3.0,66,0.00,,,0.00,meteohub,2013-01-03 11:17:00,
2013-01-03 06:22:00,10.0,1.2,30.17,NNE,24,0.0,3.0,67,0.00,,,0.00,meteohub,2013-01-03 11:22:00,
2013-01-03 06:27:00,10.0,1.6,30.17,ENE,70,2.0,3.0,68,0.00,,,0.00,meteohub,2013-01-03 11:27:00,
2013-01-03 06:32:00,9.9,1.4,30.17,ENE,58,0.0,3.0,68,0.00,,,0.00,meteohub,2013-01-03 11:32:00,
2013-01-03 06:37:00,9.9,1.4,30.17,NNE,22,1.0,3.0,68,0.00,,,0.00,meteohub,2013-01-03 11:37:00,
2013-01-03 06:42:00,9.7,1.2,30.17,East,95,1.0,4.0,68,0.00,,,0.00,meteohub,2013-01-03 11:42:00,
2013-01-03 06:47:00,9.5,1.0,30.17,ENE,61,1.0,4.0,68,0.00,,,0.00,meteohub,2013-01-03 11:47:00,
2013-01-03 06:52:00,9.3,1.2,30.18,ENE,63,0.0,4.0,69,0.00,,,0.00,meteohub,2013-01-03 11:52:00,
2013-01-03 06:57:00,9.3,1.2,30.17,East,89,6.0,6.0,69,0.00,,,0.00,meteohub,2013-01-03 11:57:00,
2013-01-03 07:02:00,9.1,0.7,30.17,East,82,0.0,6.0,68,0.00,,,0.00,meteohub,2013-01-03 12:02:00,
2013-01-03 07:07:00,9.0,0.5,30.18,East,98,0.0,6.0,68,0.00,,,0.00,meteohub,2013-01-03 12:07:00,
2013-01-03 07:12:00,9.0,0.9,30.18,WNW,299,2.0,6.0,69,0.00,,,0.00,meteohub,2013-01-03 12:12:00,
2013-01-03 07:17:00,8.8,0.3,30.18,East,88,1.0,3.0,68,0.00,,,0.00,meteohub,2013-01-03 12:17:00,
2013-01-03 07:22:00,8.6,0.5,30.18,East,88,0.0,3.0,69,0.00,,,0.00,meteohub,2013-01-03 12:22:00,
2013-01-03 07:27:00,8.6,0.5,30.18,ENE,71,1.0,2.0,69,0.00,,,0.00,meteohub,2013-01-03 12:27:00,
2013-01-03 07:32:00,8.4,0.3,30.18,ENE,71,0.0,3.0,69,0.00,,,0.00,meteohub,2013-01-03 12:32:00,
2013-01-03 07:37:00,8.2,0.1,30.18,NE,34,0.0,3.0,69,0.00,,,0.00,meteohub,2013-01-03 12:37:00,
2013-01-03 07:42:00,8.2,0.1,30.17,NE,42,1.0,3.0,69,0.00,,,0.00,meteohub,2013-01-03 12:42:00,
2013-01-03 07:47:00,8.2,0.5,30.18,NE,42,0.0,3.0,70,0.00,,,0.00,meteohub,2013-01-03 12:47:00,
2013-01-03 07:52:00,8.2,0.5,30.18,NE,42,1.0,3.0,70,0.00,,,0.00,meteohub,2013-01-03 12:52:00,
2013-01-03 07:57:00,8.2,0.5,30.18,North,9,2.0,3.0,70,0.00,,,0.00,meteohub,2013-01-03 12:57:00,
2013-01-03 08:02:00,8.4,0.7,30.19,NNW,343,1.0,5.0,70,0.00,,,0.00,meteohub,2013-01-03 13:02:00,
2013-01-03 08:07:00,8.8,0.7,30.19,ENE,71,1.0,5.0,69,0.00,,,0.00,meteohub,2013-01-03 13:07:00,
2013-01-03 08:12:00,9.0,0.5,30.19,East,79,3.0,5.0,68,0.00,,,0.00,meteohub,2013-01-03 13:12:00,
2013-01-03 08:17:00,9.0,0.3,30.19,West,275,1.0,5.0,67,0.00,,,0.00,meteohub,2013-01-03 13:17:00,
2013-01-03 08:22:00,8.4,0.3,30.19,West,267,1.0,5.0,69,0.00,,,0.00,meteohub,2013-01-03 13:22:00,
2013-01-03 08:27:00,8.6,0.9,30.19,WSW,244,0.0,5.0,70,0.00,,,0.00,meteohub,2013-01-03 13:27:00,
2013-01-03 08:32:00,8.8,0.7,30.19,West,261,0.0,2.0,69,0.00,,,0.00,meteohub,2013-01-03 13:32:00,
2013-01-03 08:37:00,9.0,0.3,30.20,WNW,284,0.0,2.0,67,0.00,,,0.00,meteohub,2013-01-03 13:37:00,
2013-01-03 08:42:00,9.1,0.1,30.20,West,273,2.0,3.0,66,0.00,,,0.00,meteohub,2013-01-03 13:42:00,
2013-01-03 08:47:00,9.5,0.1,30.20,West,280,1.0,3.0,65,0.00,,,0.00,meteohub,2013-01-03 13:47:00,
2013-01-03 08:52:00,9.9,0.9,30.20,WNW,298,1.0,3.0,66,0.00,,,0.00,meteohub,2013-01-03 13:52:00,
2013-01-03 08:57:00,9.9,0.1,30.19,NW,318,4.0,4.0,64,0.00,,,0.00,meteohub,2013-01-03 13:57:00,
2013-01-03 09:02:00,9.9,0.1,30.19,SW,233,1.0,4.0,64,0.00,,,0.00,meteohub,2013-01-03 14:02:00,
2013-01-03 09:07:00,9.9,0.1,30.19,NW,312,3.0,4.0,64,0.00,,,0.00,meteohub,2013-01-03 14:07:00,
2013-01-03 09:12:00,9.9,0.5,30.19,SW,236,1.0,4.0,65,0.00,,,0.00,meteohub,2013-01-03 14:12:00,
2013-01-03 09:17:00,10.2,0.9,30.19,NW,319,2.0,3.0,65,0.00,,,0.00,meteohub,2013-01-03 14:17:00,
2013-01-03 09:22:00,10.2,0.5,30.19,NNE,12,2.0,5.0,64,0.00,,,0.00,meteohub,2013-01-03 14:22:00,
2013-01-03 09:27:00,10.2,0.5,30.18,WNW,298,0.0,5.0,64,0.00,,,0.00,meteohub,2013-01-03 14:27:00,
2013-01-03 09:32:00,10.6,1.2,30.19,West,279,0.0,5.0,65,0.00,,,0.00,meteohub,2013-01-03 14:32:00,
2013-01-03 09:37:00,10.8,1.0,30.19,NNW,348,2.0,4.0,64,0.00,,,0.00,meteohub,2013-01-03 14:37:00,
2013-01-03 09:42:00,11.1,1.4,30.19,NNW,331,1.0,4.0,64,0.00,,,0.00,meteohub,2013-01-03 14:42:00,
2013-01-03 09:47:00,11.5,1.8,30.19,NNW,336,1.0,4.0,64,0.00,,,0.00,meteohub,2013-01-03 14:47:00,
2013-01-03 09:52:00,11.8,1.9,30.19,WNW,286,0.0,4.0,64,0.00,,,0.00,meteohub,2013-01-03 14:52:00,
2013-01-03 09:57:00,12.0,1.8,30.19,SW,226,0.0,4.0,63,0.00,,,0.00,meteohub,2013-01-03 14:57:00,
2013-01-03 10:02:00,12.6,2.7,30.18,West,280,0.0,3.0,64,0.00,,,0.00,meteohub,2013-01-03 15:02:00,
2013-01-03 10:07:00,12.9,2.7,30.18,West,275,1.0,3.0,63,0.00,,,0.00,meteohub,2013-01-03 15:07:00,
2013-01-03 10:12:00,13.5,4.3,30.18,West,281,1.0,3.0,66,0.00,,,0.00,meteohub,2013-01-03 15:12:00,
2013-01-03 10:17:00,13.8,3.9,30.18,WSW,258,2.0,3.0,64,0.00,,,0.00,meteohub,2013-01-03 15:17:00,
2013-01-03 10:22:00,14.4,4.5,30.18,WSW,257,0.0,3.0,64,0.00,,,0.00,meteohub,2013-01-03 15:22:00,
2013-01-03 10:28:00,14.7,4.8,30.18,West,273,0.0,2.0,64,0.00,,,0.00,meteohub,2013-01-03 15:28:00,
2013-01-03 10:33:00,15.3,5.0,30.18,NW,311,2.0,2.0,63,0.00,,,0.00,meteohub,2013-01-03 15:33:00,
2013-01-03 10:38:00,15.4,5.4,30.17,NE,40,0.0,2.0,64,0.00,,,0.00,meteohub,2013-01-03 15:38:00,
2013-01-03 10:43:00,16.2,5.7,30.17,NW,306,1.0,3.0,63,0.00,,,0.00,meteohub,2013-01-03 15:43:00,
2013-01-03 10:48:00,16.3,5.9,30.17,NW,326,2.0,4.0,63,0.00,,,0.00,meteohub,2013-01-03 15:48:00,
2013-01-03 10:53:00,16.7,6.6,30.17,NW,306,0.0,4.0,64,0.00,,,0.00,meteohub,2013-01-03 15:53:00,
2013-01-03 10:58:00,17.2,7.5,30.17,ENE,57,1.0,4.0,65,0.00,,,0.00,meteohub,2013-01-03 15:58:00,
2013-01-03 11:03:00,17.8,7.0,30.16,West,275,1.0,4.0,62,0.00,,,0.00,meteohub,2013-01-03 16:03:00,
2013-01-03 11:08:00,18.5,8.8,30.16,West,276,0.0,3.0,65,0.00,,,0.00,meteohub,2013-01-03 16:08:00,
2013-01-03 11:13:00,19.2,8.4,30.15,SE,128,1.0,2.0,62,0.00,,,0.00,meteohub,2013-01-03 16:13:00,
2013-01-03 11:19:00,19.6,9.0,30.15,West,275,1.0,4.0,63,0.00,,,0.00,meteohub,2013-01-03 16:19:00,
2013-01-03 11:24:00,19.0,7.2,30.14,NNW,340,1.0,4.0,59,0.00,,,0.00,meteohub,2013-01-03 16:24:00,
2013-01-03 11:29:00,19.0,7.5,30.14,NW,324,1.0,4.0,60,0.00,,,0.00,meteohub,2013-01-03 16:29:00,
2013-01-03 11:34:00,19.2,8.4,30.14,SE,140,3.0,3.0,62,0.00,,,0.00,meteohub,2013-01-03 16:34:00,
2013-01-03 11:39:00,19.6,6.4,30.14,NNE,13,2.0,4.0,56,0.00,,,0.00,meteohub,2013-01-03 16:39:00,
2013-01-03 11:44:00,19.2,5.4,30.14,WNW,298,1.0,4.0,54,0.00,,,0.00,meteohub,2013-01-03 16:44:00,
2013-01-03 11:49:00,19.4,4.6,30.14,WNW,299,1.0,4.0,52,0.00,,,0.00,meteohub,2013-01-03 16:49:00,
2013-01-03 11:54:00,19.9,5.9,30.13,WNW,286,1.0,3.0,54,0.00,,,0.00,meteohub,2013-01-03 16:54:00,
2013-01-03 11:59:00,20.5,5.2,30.13,NNW,341,1.0,4.0,51,0.00,,,0.00,meteohub,2013-01-03 16:59:00,
2013-01-03 12:04:00,20.8,6.8,30.14,SE,136,0.0,4.0,54,0.00,,,0.00,meteohub,2013-01-03 17:04:00,
2013-01-03 12:09:00,21.2,5.5,30.13,WNW,303,1.0,4.0,50,0.00,,,0.00,meteohub,2013-01-03 17:09:00,
2013-01-03 12:14:00,21.6,5.7,30.13,WNW,288,0.0,4.0,50,0.00,,,0.00,meteohub,2013-01-03 17:14:00,
2013-01-03 12:19:00,21.7,6.4,30.13,South,171,2.0,4.0,51,0.00,,,0.00,meteohub,2013-01-03 17:19:00,
2013-01-03 12:24:00,21.9,7.3,30.13,ESE,107,0.0,4.0,53,0.00,,,0.00,meteohub,2013-01-03 17:24:00,
2013-01-03 12:30:00,22.1,6.3,30.12,West,259,0.0,3.0,50,0.00,,,0.00,meteohub,2013-01-03 17:30:00,
2013-01-03 12:35:00,22.3,6.4,30.12,West,281,1.0,2.0,50,0.00,,,0.00,meteohub,2013-01-03 17:35:00,
2013-01-03 12:40:00,21.9,6.6,30.12,ESE,113,0.0,4.0,51,0.00,,,0.00,meteohub,2013-01-03 17:40:00,
2013-01-03 12:45:00,21.9,5.7,30.12,West,276,1.0,4.0,49,0.00,,,0.00,meteohub,2013-01-03 17:45:00,
2013-01-03 12:50:00,21.9,7.0,30.12,WSW,251,0.0,3.0,52,0.00,,,0.00,meteohub,2013-01-03 17:50:00,
2013-01-03 12:55:00,22.1,6.8,30.12,ESE,113,1.0,3.0,51,0.00,,,0.00,meteohub,2013-01-03 17:55:00,
2013-01-03 13:00:00,22.8,8.2,30.11,SSW,211,0.0,4.0,53,0.00,,,0.00,meteohub,2013-01-03 18:00:00,
2013-01-03 13:05:00,22.5,8.8,30.11,West,271,1.0,4.0,55,0.00,,,0.00,meteohub,2013-01-03 18:05:00,
2013-01-03 13:10:00,22.8,8.2,30.10,South,169,0.0,2.0,53,0.00,,,0.00,meteohub,2013-01-03 18:10:00,
2013-01-03 13:15:00,22.5,6.6,30.10,NE,45,2.0,4.0,50,0.00,,,0.00,meteohub,2013-01-03 18:15:00,
2013-01-03 13:20:00,22.6,8.1,30.10,NNW,347,1.0,4.0,53,0.00,,,0.00,meteohub,2013-01-03 18:20:00,
2013-01-03 13:25:00,22.8,7.3,30.10,West,281,1.0,4.0,51,0.00,,,0.00,meteohub,2013-01-03 18:25:00,
2013-01-03 13:31:00,22.6,6.8,30.10,NE,46,0.0,4.0,50,0.00,,,0.00,meteohub,2013-01-03 18:31:00,
2013-01-03 13:36:00,22.8,8.2,30.10,WSW,251,0.0,4.0,53,0.00,,,0.00,meteohub,2013-01-03 18:36:00,
2013-01-03 13:41:00,22.8,6.4,30.10,NW,322,3.0,3.0,49,0.00,,,0.00,meteohub,2013-01-03 18:41:00,
2013-01-03 13:46:00,22.5,6.3,30.10,NW,325,2.0,3.0,49,0.00,,,0.00,meteohub,2013-01-03 18:46:00,
2013-01-03 13:51:00,22.1,6.3,30.10,NNW,340,1.0,4.0,50,0.00,,,0.00,meteohub,2013-01-03 18:51:00,
2013-01-03 13:56:00,22.1,6.8,30.10,WSW,242,2.0,4.0,51,0.00,,,0.00,meteohub,2013-01-03 18:56:00,
2013-01-03 14:01:00,22.3,7.7,30.09,NW,319,2.0,4.0,53,0.00,,,0.00,meteohub,2013-01-03 19:01:00,
2013-01-03 14:06:00,21.9,6.6,30.10,NNW,347,1.0,3.0,51,0.00,,,0.00,meteohub,2013-01-03 19:06:00,
2013-01-03 14:11:00,22.3,8.2,30.09,NW,315,2.0,3.0,54,0.00,,,0.00,meteohub,2013-01-03 19:11:00,
2013-01-03 14:16:00,22.1,6.8,30.10,NNE,12,1.0,3.0,51,0.00,,,0.00,meteohub,2013-01-03 19:16:00,
2013-01-03 14:56:00,22.6,6.4,30.10,WNW,283,1.0,4.0,49,0.00,,,0.00,meteohub,2013-01-03 19:56:00,
2013-01-03 15:01:00,22.8,7.0,30.10,WNW,303,0.0,4.0,50,0.00,,,0.00,meteohub,2013-01-03 20:01:00,
2013-01-03 15:06:00,22.8,7.0,30.10,WNW,302,3.0,4.0,50,0.00,,,0.00,meteohub,2013-01-03 20:06:00,
2013-01-03 15:11:00,22.8,6.1,30.10,NW,304,2.0,4.0,48,0.00,,,0.00,meteohub,2013-01-03 20:11:00,
2013-01-03 15:16:00,22.8,6.4,30.10,WNW,294,1.0,4.0,49,0.00,,,0.00,meteohub,2013-01-03 20:16:00,
2013-01-03 15:21:00,22.8,6.4,30.10,NNW,327,0.0,4.0,49,0.00,,,0.00,meteohub,2013-01-03 20:21:00,
2013-01-03 15:27:00,22.8,6.4,30.10,WNW,288,1.0,3.0,49,0.00,,,0.00,meteohub,2013-01-03 20:27:00,
2013-01-03 15:32:00,22.8,7.0,30.10,WNW,288,0.0,2.0,50,0.00,,,0.00,meteohub,2013-01-03 20:32:00,
2013-01-03 15:37:00,22.6,7.7,30.10,WNW,286,0.0,2.0,52,0.00,,,0.00,meteohub,2013-01-03 20:37:00,
2013-01-03 15:42:00,22.6,7.7,30.10,WNW,303,0.0,1.0,52,0.00,,,0.00,meteohub,2013-01-03 20:42:00,
2013-01-03 15:47:00,22.5,7.9,30.10,WNW,303,1.0,1.0,53,0.00,,,0.00,meteohub,2013-01-03 20:47:00,
2013-01-03 15:52:00,22.5,7.0,30.10,NNW,330,0.0,1.0,51,0.00,,,0.00,meteohub,2013-01-03 20:52:00,
2013-01-03 15:57:00,22.5,6.6,30.10,WSW,252,0.0,1.0,50,0.00,,,0.00,meteohub,2013-01-03 20:57:00,
2013-01-03 16:02:00,22.5,7.0,30.10,WNW,283,1.0,1.0,51,0.00,,,0.00,meteohub,2013-01-03 21:02:00,
2013-01-03 16:07:00,22.5,6.6,30.10,NW,312,0.0,2.0,50,0.00,,,0.00,meteohub,2013-01-03 21:07:00,
2013-01-03 16:12:00,22.5,7.0,30.10,WSW,237,0.0,2.0,51,0.00,,,0.00,meteohub,2013-01-03 21:12:00,
2013-01-03 16:17:00,22.3,7.0,30.09,West,276,0.0,2.0,51,0.00,,,0.00,meteohub,2013-01-03 21:17:00,
2013-01-03 16:23:00,21.9,7.0,30.09,West,276,0.0,2.0,52,0.00,,,0.00,meteohub,2013-01-03 21:23:00,
2013-01-03 16:28:00,21.7,6.4,30.09,West,276,0.0,2.0,51,0.00,,,0.00,meteohub,2013-01-03 21:28:00,
2013-01-03 16:33:00,21.7,5.9,30.09,West,275,0.0,2.0,50,0.00,,,0.00,meteohub,2013-01-03 21:33:00,
2013-01-03 16:38:00,21.6,6.3,30.09,West,275,0.0,1.0,51,0.00,,,0.00,meteohub,2013-01-03 21:38:00,
2013-01-03 16:43:00,21.4,6.4,30.09,West,275,0.0,1.0,52,0.00,,,0.00,meteohub,2013-01-03 21:43:00,
2013-01-03 16:48:00,21.2,6.3,30.09,West,275,0.0,1.0,52,0.00,,,0.00,meteohub,2013-01-03 21:48:00,
2013-01-03 16:53:00,20.8,7.2,30.09,West,275,0.0,1.0,55,0.00,,,0.00,meteohub,2013-01-03 21:53:00,
2013-01-03 16:58:00,20.7,9.7,30.09,West,275,0.0,0.0,62,0.00,,,0.00,meteohub,2013-01-03 21:58:00,
2013-01-03 17:03:00,20.1,9.9,30.09,West,275,0.0,0.0,64,0.00,,,0.00,meteohub,2013-01-03 22:03:00,
2013-01-03 17:08:00,19.8,10.9,30.09,West,275,0.0,0.0,68,0.00,,,0.00,meteohub,2013-01-03 22:08:00,
2013-01-03 17:13:00,19.4,10.6,30.09,West,275,0.0,0.0,68,0.00,,,0.00,meteohub,2013-01-03 22:13:00,
2013-01-03 17:18:00,19.0,10.6,30.09,West,275,0.0,1.0,69,0.00,,,0.00,meteohub,2013-01-03 22:18:00,
2013-01-03 17:23:00,18.9,9.7,30.09,West,275,0.0,1.0,67,0.00,,,0.00,meteohub,2013-01-03 22:23:00,
2013-01-03 17:28:00,18.5,10.8,30.09,West,275,0.0,1.0,71,0.00,,,0.00,meteohub,2013-01-03 22:28:00,
2013-01-03 17:34:00,18.3,10.6,30.09,West,275,0.0,1.0,71,0.00,,,0.00,meteohub,2013-01-03 22:34:00,
2013-01-03 17:39:00,18.0,9.5,30.09,West,275,0.0,1.0,69,0.00,,,0.00,meteohub,2013-01-03 22:39:00,
2013-01-03 17:44:00,17.8,9.3,30.09,West,275,0.0,0.0,69,0.00,,,0.00,meteohub,2013-01-03 22:44:00,
2013-01-03 17:49:00,17.8,9.7,30.09,West,271,0.0,0.0,70,0.00,,,0.00,meteohub,2013-01-03 22:49:00,
2013-01-03 17:54:00,18.1,8.1,30.09,West,265,1.0,1.0,64,0.00,,,0.00,meteohub,2013-01-03 22:54:00,
2013-01-03 17:59:00,18.9,7.0,30.09,WNW,295,0.0,1.0,59,0.00,,,0.00,meteohub,2013-01-03 22:59:00,
2013-01-03 18:04:00,19.2,6.8,30.09,WNW,295,0.0,3.0,58,0.00,,,0.00,meteohub,2013-01-03 23:04:00,
2013-01-03 18:09:00,19.4,6.3,30.09,WSW,254,1.0,3.0,56,0.00,,,0.00,meteohub,2013-01-03 23:09:00,
2013-01-03 18:14:00,19.6,6.1,30.10,West,260,0.0,3.0,55,0.00,,,0.00,meteohub,2013-01-03 23:14:00,
2013-01-03 18:19:00,19.8,6.3,30.09,West,259,0.0,1.0,55,0.00,,,0.00,meteohub,2013-01-03 23:19:00,
2013-01-03 18:24:00,19.8,5.7,30.10,WNW,289,0.0,1.0,54,0.00,,,0.00,meteohub,2013-01-03 23:24:00,
2013-01-03 18:29:00,19.8,5.4,30.10,WNW,290,0.0,1.0,53,0.00,,,0.00,meteohub,2013-01-03 23:29:00,
2013-01-03 18:34:00,19.8,5.4,30.11,WNW,289,0.0,1.0,53,0.00,,,0.00,meteohub,2013-01-03 23:34:00,
2013-01-03 18:39:00,19.6,4.8,30.11,WNW,289,0.0,1.0,52,0.00,,,0.00,meteohub,2013-01-03 23:39:00,
2013-01-03 18:44:00,19.6,5.2,30.10,WNW,289,0.0,1.0,53,0.00,,,0.00,meteohub,2013-01-03 23:44:00,
2013-01-03 18:50:00,19.2,4.8,30.11,WNW,290,0.0,1.0,53,0.00,,,0.00,meteohub,2013-01-03 23:50:00,
2013-01-03 18:55:00,19.2,4.5,30.10,WNW,290,0.0,1.0,52,0.00,,,0.00,meteohub,2013-01-03 23:55:00,
2013-01-03 19:00:00,19.0,5.5,30.11,WNW,289,0.0,1.0,55,0.00,,,0.00,meteohub,2013-01-04 00:00:00,
2013-01-03 19:05:00,19.0,5.2,30.11,WNW,290,0.0,1.0,54,0.00,,,0.00,meteohub,2013-01-04 00:05:00,
2013-01-03 19:10:00,18.9,5.0,30.12,WNW,290,0.0,1.0,54,0.00,,,0.00,meteohub,2013-01-04 00:10:00,
2013-01-03 19:15:00,18.7,5.5,30.12,WNW,290,0.0,0.0,56,0.00,,,0.00,meteohub,2013-01-04 00:15:00,
2013-01-03 19:20:00,18.7,4.8,30.12,WNW,290,0.0,0.0,54,0.00,,,0.00,meteohub,2013-01-04 00:20:00,
2013-01-03 19:25:00,18.5,8.4,30.12,WNW,290,0.0,0.0,64,0.00,,,0.00,meteohub,2013-01-04 00:25:00,
2013-01-03 19:30:00,18.3,6.4,30.12,WNW,290,0.0,0.0,59,0.00,,,0.00,meteohub,2013-01-04 00:30:00,
2013-01-03 19:35:00,18.3,5.7,30.12,West,281,0.0,1.0,57,0.00,,,0.00,meteohub,2013-01-04 00:35:00,
2013-01-03 19:40:00,18.7,5.9,30.12,West,281,1.0,1.0,57,0.00,,,0.00,meteohub,2013-01-04 00:40:00,
2013-01-03 19:45:00,19.0,5.9,30.12,West,281,0.0,1.0,56,0.00,,,0.00,meteohub,2013-01-04 00:45:00,
2013-01-03 19:50:00,19.4,5.9,30.11,West,281,0.0,1.0,55,0.00,,,0.00,meteohub,2013-01-04 00:50:00,
2013-01-03 19:55:00,19.6,6.8,30.11,West,281,1.0,1.0,57,0.00,,,0.00,meteohub,2013-01-04 00:55:00,
2013-01-03 20:00:00,19.2,7.7,30.11,North,5,0.0,1.0,60,0.00,,,0.00,meteohub,2013-01-04 01:00:00,
2013-01-03 20:06:00,19.4,7.7,30.12,North,5,0.0,1.0,60,0.00,,,0.00,meteohub,2013-01-04 01:06:00,
2013-01-03 20:11:00,19.6,7.5,30.11,West,281,0.0,1.0,59,0.00,,,0.00,meteohub,2013-01-04 01:11:00,
2013-01-03 20:16:00,20.5,8.4,30.12,West,275,1.0,1.0,59,0.00,,,0.00,meteohub,2013-01-04 01:16:00,
2013-01-03 20:21:00,20.7,8.2,30.12,West,275,1.0,1.0,58,0.00,,,0.00,meteohub,2013-01-04 01:21:00,
2013-01-03 20:26:00,20.7,7.9,30.11,West,273,0.0,1.0,57,0.00,,,0.00,meteohub,2013-01-04 01:26:00,
2013-01-03 20:31:00,20.8,8.1,30.11,West,273,0.0,1.0,57,0.00,,,0.00,meteohub,2013-01-04 01:31:00,
2013-01-03 20:36:00,20.8,8.4,30.11,West,273,0.0,1.0,58,0.00,,,0.00,meteohub,2013-01-04 01:36:00,
2013-01-03 20:41:00,20.8,8.8,30.12,West,275,0.0,1.0,59,0.00,,,0.00,meteohub,2013-01-04 01:41:00,
2013-01-03 20:46:00,21.0,9.0,30.12,West,275,0.0,1.0,59,0.00,,,0.00,meteohub,2013-01-04 01:46:00,
2013-01-03 20:51:00,21.0,9.3,30.12,West,275,0.0,1.0,60,0.00,,,0.00,meteohub,2013-01-04 01:51:00,
2013-01-03 20:56:00,20.8,9.5,30.12,West,275,0.0,1.0,61,0.00,,,0.00,meteohub,2013-01-04 01:56:00,
2013-01-03 21:01:00,21.0,10.4,30.12,West,275,0.0,1.0,63,0.00,,,0.00,meteohub,2013-01-04 02:01:00,
2013-01-03 21:06:00,21.2,10.6,30.11,West,275,0.0,1.0,63,0.00,,,0.00,meteohub,2013-01-04 02:06:00,
2013-01-03 21:11:00,21.2,10.6,30.11,West,275,0.0,1.0,63,0.00,,,0.00,meteohub,2013-01-04 02:11:00,
2013-01-03 21:16:00,21.4,11.5,30.11,West,275,0.0,1.0,65,0.00,,,0.00,meteohub,2013-01-04 02:16:00,
2013-01-03 21:22:00,21.6,12.4,30.11,WNW,288,0.0,1.0,67,0.00,,,0.00,meteohub,2013-01-04 02:22:00,
2013-01-03 21:27:00,21.7,12.6,30.12,WNW,288,1.0,1.0,67,0.00,,,0.00,meteohub,2013-01-04 02:27:00,
2013-01-03 21:32:00,22.1,13.1,30.12,West,280,0.0,1.0,68,0.00,,,0.00,meteohub,2013-01-04 02:32:00,
2013-01-03 21:37:00,22.3,13.3,30.12,West,268,1.0,1.0,68,0.00,,,0.00,meteohub,2013-01-04 02:37:00,
2013-01-03 21:42:00,22.5,13.8,30.12,West,281,0.0,2.0,69,0.00,,,0.00,meteohub,2013-01-04 02:42:00,
2013-01-03 21:47:00,22.6,14.0,30.12,West,280,0.0,2.0,69,0.00,,,0.00,meteohub,2013-01-04 02:47:00,
2013-01-03 21:52:00,22.6,14.0,30.12,West,280,0.0,2.0,69,0.00,,,0.00,meteohub,2013-01-04 02:52:00,
2013-01-03 21:57:00,22.6,14.0,30.12,WSW,245,0.0,2.0,69,0.00,,,0.00,meteohub,2013-01-04 02:57:00,
2013-01-03 22:02:00,22.5,14.2,30.12,WSW,252,0.0,2.0,70,0.00,,,0.00,meteohub,2013-01-04 03:02:00,
2013-01-03 22:07:00,22.5,14.2,30.12,WSW,252,0.0,2.0,70,0.00,,,0.00,meteohub,2013-01-04 03:07:00,
2013-01-03 22:12:00,22.5,14.5,30.12,WNW,291,0.0,2.0,71,0.00,,,0.00,meteohub,2013-01-04 03:12:00,
2013-01-03 22:17:00,22.5,14.5,30.12,WNW,291,0.0,1.0,71,0.00,,,0.00,meteohub,2013-01-04 03:17:00,
2013-01-03 22:22:00,22.3,14.4,30.12,WNW,291,0.0,1.0,71,0.00,,,0.00,meteohub,2013-01-04 03:22:00,
2013-01-03 22:27:00,22.3,14.7,30.12,WNW,288,1.0,1.0,72,0.00,,,0.00,meteohub,2013-01-04 03:27:00,
2013-01-03 22:32:00,22.3,14.9,30.12,WNW,288,0.0,1.0,73,0.00,,,0.00,meteohub,2013-01-04 03:32:00,
2013-01-03 22:37:00,22.3,14.7,30.12,WNW,282,1.0,1.0,72,0.00,,,0.00,meteohub,2013-01-04 03:37:00,
2013-01-03 22:42:00,22.3,14.9,30.11,WNW,283,0.0,1.0,73,0.00,,,0.00,meteohub,2013-01-04 03:42:00,
2013-01-03 22:47:00,22.3,14.9,30.11,WNW,283,0.0,1.0,73,0.00,,,0.00,meteohub,2013-01-04 03:47:00,
2013-01-03 22:52:00,22.3,14.9,30.11,WNW,282,0.0,1.0,73,0.00,,,0.00,meteohub,2013-01-04 03:52:00,
2013-01-03 23:56:00,19.2,14.4,30.08,WNW,282,0.0,0.0,81,0.00,,,0.00,meteohub,2013-01-04 04:56:00,